Location: Johnson City
(36.3130°N, 82.3540°W)
Time: 07:47:35
(UTC-04:00)

ISS - Visible Passes

Search period start: 26 April 2017 00:00
Search period end: 06 May 2017 00:00
Orbit: 400 x 409 km, 51.6° (Epoch: 26 April)

Date Brightness Start Highest point End Pass type
(mag) Time Alt. Az. Time Alt. Az. Time Alt. Az.
01 May -1.0 06:00:40 10° SSE 06:02:08 12° SE 06:03:35 10° E visible
03 May -2.4 05:50:38 10° SSW 05:53:35 32° SE 05:56:33 10° ENE visible
04 May -1.4 04:59:56 13° SSE 05:01:22 16° SE 05:03:27 10° E visible
05 May -3.9 05:42:27 14° SW 05:45:08 85° NW 05:48:25 10° NE visible
